Location: Unnamed
(23.5608°S, 46.6833°W)
Time: 15:25:05
(UTC-03:00)

AO-85 - Visible Passes

Search period start: 28 March 2023 00:00
Search period end: 07 April 2023 00:00
Orbit: 516 x 753 km, 64.8° (Epoch: 04 January)

Date Brightness Start Highest point End Pass type
(mag) Time Alt. Az. Time Alt. Az. Time Alt. Az.
28 Mar ? 05:14:01 10° S 05:18:27 28° ESE 05:22:40 10° ENE visible
28 Mar ? 19:16:00 10° NNW 19:20:27 67° ENE 19:25:19 10° SSE visible
29 Mar ? 05:35:04 10° SSW 05:40:14 70° ESE 05:45:04 10° NNE visible
29 Mar ? 19:37:43 10° NW 19:42:05 44° WSW 19:46:48 10° S visible
30 Mar ? 04:18:12 10° SSE 04:21:21 16° SE 04:24:24 10° E visible
30 Mar ? 20:00:45 10° W 20:03:57 18° SW 20:07:19 10° SSW visible
31 Mar ? 04:38:28 10° S 04:43:16 37° ESE 04:47:47 10° NE visible
31 Mar ? 18:40:37 10° NNW 18:45:08 87° WSW 18:50:05 10° SSE visible
01 Apr ? 04:59:46 10° SSW 05:04:56 85° WNW 05:09:46 10° NNE visible
01 Apr ? 19:02:42 10° NW 19:06:50 32° WSW 19:11:16 10° S visible
02 Apr ? 03:44:03 17° SSE 03:46:10 21° ESE 03:49:54 10° ENE visible
02 Apr ? 05:21:52 10° SW 05:26:21 31° WNW 05:30:36 10° N visible
02 Apr ? 19:26:26 10° W 19:28:46 13° SW 19:31:11 10° SSW visible
03 Apr ? 04:07:50 51° SE 04:07:59 51° ESE 04:12:41 10° NE visible
03 Apr ? 05:45:52 10° W 05:47:36 12° WNW 05:49:17 10° NW visible
04 Apr ? 04:31:21 36° N 04:31:21 36° N 04:34:16 10° NNE visible
04 Apr ? 18:27:46 10° WNW 18:31:33 24° WSW 18:35:33 10° S visible
05 Apr ? 04:54:33 10° NNW 04:54:33 10° NNW 04:54:38 10° NNW visible
